RH
7 6 10 10 10 13 16 21 21 23 18 21 23 21 25 29 32 36 38 45 59 67 76 81 79 87 93 90 88 82 78 75 72 68 67 62 61 59
6 8 9 11 13 13 15 18 20 22 24 20 17 20 16 15 19 23 24 23 26 39 53 61 73 82 83 80 74 71 77 71 73 65 62 61 58 64
7 9 11 14 15 17 21 18 15 18 22 17 21 17 14 14 15 18 19 19 19 18 21 25 37 48 59 59 60 66 71 69 66 58 51 50 53 54
7 9 12 15 18 20 19 18 20 21 23 22 21 19 18 18 18 17 19 21 19 18 15 15 16 19 26 35 44 49 58 62 62 51 45 46 49 51
8 11 16 20 26 21 20 20 22 23 23 24 23 23 24 23 22 19 18 17 18 18 16 17 17 23 24 25 22 28 35 42 52 51 44 44 47 47
9 14 18 24 24 21 21 24 25 26 26 27 26 27 28 28 30 29 22 21 20 17 21 26 25 22 21 20 17 22 27 31 34 36 37 41 44 48
10 15 19 19 22 23 26 27 28 29 30 31 31 32 32 32 33 33 35 31 28 31 28 29 27 24 22 23 27 28 33 33 35 37 37 40 42 44
14 17 17 20 22 25 29 31 33 36 37 40 40 40 39 42 42 42 42 40 33 38 38 34 37 32 31 30 33 36 38 40 39 41 44 44 45 54
14 16 18 21 27 30 32 35 39 43 48 49 48 50 52 54 54 51 51 49 46 44 46 41 47 44 43 40 41 39 48 48 49 51 52 53 53 56
13 16 22 26 30 34 37 40 45 50 55 60 65 66 66 65 66 64 62 57 54 54 58 52 58 57 54 51 48 50 59 58 61 61 61 62 61 63
14 19 25 30 35 40 43 46 52 58 64 68 67 66 68 71 71 70 71 71 64 62 65 62 62 60 65 63 66 70 67 72 71 68 71 73 72 71
16 19 25 35 40 46 50 56 60 66 68 67 67 67 70 73 79 80 78 78 80 76 75 69 69 68 64 67 71 69 73 83 78 80 81 80 82 80
18 20 27 37 43 51 60 67 72 71 68 66 67 69 71 74 81 87 88 86 85 87 90 90 85 85 74 69 66 66 85 91 89 91 89 88 88 88
22 24 30 39 48 57 68 76 78 73 71 71 72 73 74 78 83 89 92 93 88 85 89 94 94 97 92 79 72 69 88 98 93 94 98 98 98 98
25 29 36 44 52 64 78 82 78 77 77 77 76 77 77 78 83 89 96 94 89 88 89 93 96 97 96 93 77 73 88 94 93 94 98 98 98 98
28 32 39 48 59 74 82 82 83 84 83 82 81 82 85 85 86 92 94 95 90 90 93 96 98 98 97 94 83 80 93 97 98 97 98 97 97 98
30 34 40 52 64 78 83 84 86 86 84 86 89 92 93 94 91 96 96 97 94 96 98 98 97 97 98 94 85 88 94 97 97 98 98 97 97 98
31 37 46 58 74 82 82 83 84 84 89 93 95 96 96 95 95 97 97 97 97 98 98 98 98 97 98 95 92 95 97 97 97 98 97 97 97 97
33 41 51 64 81 85 84 85 83 91 95 98 98 98 98 97 97 97 97 97 97 98 98 98 98 98 97 97 97 97 97 97 97 97 97 97 97 97
36 43 54 70 86 86 86 85 89 93 96 98 98 98 98 98 97 97 98 98 98 98 97 97 98 98 97 97 97 97 97 97 97 97 97 98 97 97
36 43 55 72 88 88 88 89 93 95 95 96 95 96 97 97 97 98 97 98 98 98 97 97 98 98 97 97 97 97 97 97 97 97 97 97 97 97
37 43 56 73 89 89 89 90 92 95 95 96 96 97 97 97 97 97 98 98 98 96 96 98 98 97 97 97 97 97 97 98 98 98 97 96 97 96
38 43 55 72 88 89 88 91 92 93 96 96 97 97 97 97 97 97 97 98 90 91 94 96 97 97 97 96 96 97 97 97 98 96 95 96 94 93